Weather reports worldwide

Advertisment
Alghero, Italy (16520): temperature & dewpoint: 21.02.2020 15:00:00 - 27.02.2020 15:00:00 (CET)Alghero, Italy (16520): wind speed: 21.02.2020 15:00:00 - 27.02.2020 15:00:00 (CET)Alghero, Italy (16520): wind direction: 21.02.2020 15:00:00 - 27.02.2020 15:00:00 (CET)Alghero, Italy (16520): reduced air pressure: 21.02.2020 15:00:00 - 27.02.2020 15:00:00 (CET)Alghero, Italy (16520): visibility: 21.02.2020 15:00:00 - 27.02.2020 15:00:00 (CET)Alghero, Italy (16520): precipitation: 21.02.2020 15:00:00 - 27.02.2020 15:00:00 (CET)
Date & Time tt [°C] td [°C] ff [km/h] ff [kn] dd ppp [hPa] vv [km] rr [mm]
27.02.2020 15:00:00 14,0 7,0 24 13 SW - 10 -
27.02.2020 14:00:00 15,0 7,0 21 11 WSW - 10 -
27.02.2020 13:00:00 14,3 5,5 21 11 W 1018,0 25 -
27.02.2020 12:00:00 15,0 5,0 21 11 W - 10 -
27.02.2020 11:00:00 14,0 6,0 16 9 WNW - 10 -
27.02.2020 10:00:00 13,7 5,7 16 9 WNW 1018,5 10 0,0
27.02.2020 09:00:00 13,0 5,0 9 5 WNW - 10 -
27.02.2020 08:00:00 11,0 4,0 8 4 WNW - 10 -
27.02.2020 07:00:00 10,9 3,0 13 7 NW 1016,7 10 -
27.02.2020 06:00:00 11,0 3,0 13 7 NW - 10 -
27.02.2020 05:00:00 11,0 1,0 15 8 NW - 10 -
27.02.2020 04:00:00 11,2 -0,8 13 7 NW 1017,1 10 0,0
27.02.2020 03:00:00 11,0 -1,0 15 8 NW - 10 -
27.02.2020 02:00:00 11,0 -1,0 15 8 NW - 10 -
27.02.2020 01:00:00 11,5 -1,7 18 10 NW 1016,4 10 -
27.02.2020 00:00:00 12,0 -2,0 24 13 NW - 10 -
26.02.2020 23:00:00 12,0 0,0 24 13 NW - 10 -
26.02.2020 22:00:00 12,4 -0,4 34 18 NW 1015,5 10 0,0
26.02.2020 21:00:00 13,0 2,0 26 14 NW - 10 -
26.02.2020 20:00:00 12,0 3,0 16 9 NW - 10 -
26.02.2020 19:00:00 12,3 1,0 24 13 NW 1013,9 10 -
26.02.2020 18:00:00 13,0 3,0 24 13 WNW - 10 -
26.02.2020 17:00:00 13,0 4,0 24 13 WNW - 10 -
26.02.2020 16:00:00 13,6 4,5 22 12 NW 1012,3 10 0,0
26.02.2020 15:00:00 14,0 6,0 21 11 NW - 10 -
26.02.2020 14:00:00 15,0 5,0 22 12 WNW - 10 -
26.02.2020 13:00:00 14,6 5,8 22 12 W 1012,8 10 -
26.02.2020 12:00:00 15,0 7,0 16 9 WNW - 10 -
26.02.2020 11:00:00 14,0 6,0 18 10 NW - 10 -
26.02.2020 10:00:00 14,2 6,1 13 7 WNW 1012,8 10 0,0
26.02.2020 09:00:00 14,0 7,0 15 8 WNW - 10 -
26.02.2020 08:00:00 14,0 5,0 13 7 NW - 10 -
26.02.2020 07:00:00 13,3 6,1 9 5 NW 1011,9 10 -
26.02.2020 06:00:00 14,0 6,0 11 6 NW - 10 -
26.02.2020 05:00:00 14,0 6,0 15 8 NW - 10 -
26.02.2020 04:00:00 13,7 6,9 16 9 WNW 1012,2 10 0,0
26.02.2020 03:00:00 14,0 10,0 13 7 WNW - 10 -
26.02.2020 02:00:00 11,0 10,0 8 4 W - 10 -
26.02.2020 01:00:00 11,6 10,0 11 6 SW 1012,9 10 -
26.02.2020 00:00:00 11,0 9,0 9 5 WSW - 10 -
25.02.2020 23:00:00 12,0 10,0 11 6 WSW - 10 -
25.02.2020 22:00:00 12,3 10,8 13 7 WSW 1013,5 10 0,0
25.02.2020 21:00:00 11,0 10,0 4 2 - - 10 -
25.02.2020 20:00:00 12,0 11,0 5 3 S - 10 -
25.02.2020 19:00:00 12,0 10,0 8 4 SW - 10 -
25.02.2020 18:00:00 14,0 11,0 11 6 SW - 10 -
25.02.2020 17:00:00 16,0 11,0 16 9 SW - 10 -
25.02.2020 16:00:00 15,9 10,8 24 13 WSW 1013,8 10 0,0
25.02.2020 15:00:00 16,0 11,0 22 12 SW - 10 -
25.02.2020 14:00:00 17,0 14,0 26 14 SSW - 10 -
25.02.2020 13:00:00 15,9 11,9 28 15 S 1016,0 10 -
25.02.2020 12:00:00 16,0 12,0 31 17 SSW - 10 -
25.02.2020 11:00:00 16,0 12,0 34 18 SSW - 10 -
25.02.2020 10:00:00 14,7 12,2 31 17 SSW 1017,2 10 0,0
25.02.2020 09:00:00 14,0 12,0 24 13 SSW - 10 -
25.02.2020 08:00:00 13,0 12,0 13 7 SSW - 10 -
25.02.2020 07:00:00 13,0 11,8 22 12 S 1017,4 10 -
25.02.2020 06:00:00 13,0 12,0 21 11 SSW - 10 -
25.02.2020 05:00:00 13,0 12,0 24 13 SSW - 10 -
25.02.2020 04:00:00 12,4 11,3 18 10 SW 1018,8 10 0,0
25.02.2020 03:00:00 13,0 12,0 16 9 SSW - 10 -
25.02.2020 02:00:00 13,0 12,0 13 7 SW - 10 -
25.02.2020 01:00:00 12,7 12,1 13 7 SSW 1021,0 10 -
25.02.2020 00:00:00 13,0 12,0 11 6 SSW - 10 -
24.02.2020 23:00:00 11,0 11,0 5 3 SW - 10 -
24.02.2020 22:00:00 12,3 11,2 11 6 SW 1021,9 10 0,0
24.02.2020 21:00:00 12,0 12,0 9 5 SSW - 10 -
24.02.2020 20:00:00 12,0 12,0 11 6 SSW - 10 -
24.02.2020 19:00:00 12,6 11,6 11 6 SSW 1022,4 10 -
24.02.2020 18:00:00 15,0 12,0 18 10 SSW - 10 -
24.02.2020 17:00:00 16,0 12,0 18 10 SSW - 10 -
24.02.2020 16:00:00 16,9 12,4 16 9 S 1023,1 10 0,0
24.02.2020 15:00:00 17,0 13,0 22 12 S - 10 -
24.02.2020 14:00:00 17,0 13,0 24 13 SSW - 10 -
24.02.2020 13:00:00 17,0 12,7 21 11 SSW 1025,0 10 -
24.02.2020 12:00:00 17,0 13,0 24 13 SSW - 10 -
24.02.2020 11:00:00 16,0 13,0 22 12 SSW - 10 -
24.02.2020 10:00:00 15,1 12,9 21 11 SSW 1026,0 10 0,0
24.02.2020 09:00:00 14,0 12,0 21 11 SW - 10 -
24.02.2020 08:00:00 13,0 12,0 21 11 SSW - 10 -
24.02.2020 07:00:00 12,8 11,4 16 9 SSW 1025,8 10 -
24.02.2020 06:00:00 13,0 12,0 24 13 SSW - 10 -
24.02.2020 05:00:00 13,0 11,0 21 11 SSW - 10 -
24.02.2020 04:00:00 12,5 11,1 21 11 SSW 1026,7 10 0,0
24.02.2020 03:00:00 13,0 11,0 24 13 SSW - 10 -
24.02.2020 02:00:00 12,0 11,0 22 12 SSW - 10 -
24.02.2020 01:00:00 11,9 10,4 16 9 SW 1028,9 10 -
24.02.2020 00:00:00 12,0 10,0 13 7 SW - 10 -
23.02.2020 23:00:00 10,0 9,0 9 5 SW - 10 -
23.02.2020 22:00:00 9,9 8,6 9 5 SSW 1029,7 10 0,0
23.02.2020 21:00:00 9,0 8,0 4 2 SSW - 10 -
23.02.2020 20:00:00 9,0 8,0 5 3 WSW - 10 -
23.02.2020 19:00:00 10,7 8,6 8 4 WSW 1030,5 10 -
23.02.2020 18:00:00 13,0 9,0 9 5 SW - 10 -
23.02.2020 17:00:00 14,0 10,0 13 7 WSW - 10 -
23.02.2020 16:00:00 15,2 9,7 16 9 WSW 1031,1 10 0,0
23.02.2020 15:00:00 15,0 10,0 21 11 SW - 10 -
23.02.2020 14:00:00 16,0 10,0 24 13 SW - 10 -
23.02.2020 13:00:00 15,6 9,7 24 13 SSW 1032,1 10 -
23.02.2020 12:00:00 15,0 10,0 21 11 SSW - 10 -
23.02.2020 11:00:00 14,0 11,0 18 10 SSW - 10 -
23.02.2020 10:00:00 12,7 11,3 4 2 - 1033,4 10 0,0
23.02.2020 09:00:00 9,0 9,0 2 1 - - 10 -
23.02.2020 08:00:00 7,0 7,0 4 2 - - 10 -
23.02.2020 07:00:00 4,2 3,7 4 2 - 1032,4 8 -
23.02.2020 06:00:00 4,0 4,0 0 0 N - 9 -
23.02.2020 05:00:00 4,0 4,0 2 1 - - 10 -
23.02.2020 04:00:00 3,7 3,1 4 2 NNE 1032,1 10 0,0
23.02.2020 03:00:00 5,0 4,0 5 3 ESE - 10 -
23.02.2020 02:00:00 5,0 5,0 4 2 SSW - 10 -
23.02.2020 01:00:00 6,5 6,0 5 3 NE 1033,7 10 -
23.02.2020 00:00:00 6,0 5,0 4 2 N - 10 -
22.02.2020 23:00:00 7,0 7,0 2 1 - - 10 -
22.02.2020 22:00:00 7,6 6,7 5 3 ENE 1033,7 10 0,0
22.02.2020 21:00:00 9,0 8,0 4 2 ENE - 10 -
22.02.2020 20:00:00 10,0 8,0 4 2 N - 10 -
22.02.2020 19:00:00 12,4 9,1 2 1 - 1032,0 10 -
22.02.2020 18:00:00 15,0 9,0 5 3 SW - 10 -
22.02.2020 17:00:00 16,0 9,0 15 8 SSW - 10 -
22.02.2020 16:00:00 16,1 8,7 15 8 SSW 1030,9 10 0,0
22.02.2020 15:00:00 17,0 8,0 13 7 S - 10 -
22.02.2020 14:00:00 16,0 9,0 13 7 SSW - 10 -
22.02.2020 13:00:00 16,3 8,7 9 5 SSW 1031,4 10 -
22.02.2020 12:00:00 16,0 9,0 11 6 SSW - 10 -
22.02.2020 11:00:00 15,0 10,0 8 4 S - 10 -
22.02.2020 10:00:00 12,5 8,9 4 2 - 1030,4 10 0,0
22.02.2020 09:00:00 9,0 8,0 4 2 - - 10 -
22.02.2020 08:00:00 5,0 5,0 5 3 N - 10 -
22.02.2020 07:00:00 4,6 4,1 2 1 - 1028,5 10 -
22.02.2020 06:00:00 6,0 5,0 8 4 N - 10 -
22.02.2020 05:00:00 5,0 4,0 5 3 N - 10 -
22.02.2020 04:00:00 4,5 3,9 4 2 N 1026,9 10 0,0
22.02.2020 03:00:00 4,0 4,0 8 4 NNE - 10 -
22.02.2020 02:00:00 6,0 5,0 4 2 N - 10 -
22.02.2020 01:00:00 5,7 4,9 4 2 - 1026,8 10 -
22.02.2020 00:00:00 7,0 6,0 2 1 N - 10 -
21.02.2020 23:00:00 8,0 7,0 2 1 - - 10 -
21.02.2020 22:00:00 - - - - - - - -
21.02.2020 21:00:00 - - - - - - - -
21.02.2020 20:00:00 - - - - - - - -
21.02.2020 19:00:00 13,2 8,4 5 3 WNW 1025,7 10 -
21.02.2020 18:00:00 14,0 9,0 11 6 WNW - 10 -
21.02.2020 17:00:00 15,0 9,0 18 10 W - 10 -
21.02.2020 16:00:00 15,6 8,6 16 9 W 1024,7 10 0,0
21.02.2020 15:00:00 16,0 8,0 21 11 WNW - 10 -

tt = temperature
td = dewpoint
ff = wind speed
dd = wind direction
ppp = reduced air pressure
vv = visibility
rr = precipitation

Next stations